Location: Kielce
(50.8833°N, 20.6167°E)
Time: 20:50:15
(UTC+02:00)

SR - Pass Details

Date: 26 April 2021
Orbit: 573 x 882 km, 66.7° (Epoch: 08 May)

Event Time Altitude Azimuth Distance (km) Brightness Sun altitude
Rises 06:59:55 0° 213° (SSW) 3,349 ? 14.3°
Reaches altitude 10° 07:02:18 10° 213° (SSW) 2,453 ? 14.7°
Maximum altitude 07:08:02 85° 127° (SE) 880 ? 15.6°
Drops below altitude 10° 07:14:01 10° 38° (NE) 2,550 ? 16.6°
Sets 07:16:32 0° 39° (NE) 3,489 ? 17.0°
